Theta_e
313 313 313 313 313 313 314 313 312 310 309 308 306 306 305 305 305 305 305 305 305 306 307 308 308 308 307 307 307 308 308 309 312 314 316 313 312 312 313 314 314 314 314 313 313 313 313 313 313 313 315 315 315 316 315 314 313 317 320 317 314 316 317 317 318 315 316 316 314 311 311 314 314 311 310 310 311 312 312 311 312 311 311 312 310 310 309 313
313 312 312 312 313 312 313 313 313 311 309 308 307 305 305 305 305 305 305 305 305 306 307 307 308 307 307 307 307 308 309 310 311 315 316 313 311 313 313 314 314 314 314 313 313 313 314 314 313 313 316 315 313 316 317 314 314 317 319 315 315 319 317 315 317 314 315 316 314 312 310 312 314 313 311 312 314 313 313 314 313 312 313 313 311 310 311 315
312 312 311 312 311 311 312 313 313 311 308 307 306 305 305 304 305 305 305 305 305 306 307 307 307 307 307 307 308 307 310 311 310 314 315 312 312 313 313 313 313 313 314 314 314 313 313 313 313 314 315 315 313 315 317 315 314 314 316 315 316 318 315 313 314 313 312 313 314 312 309 311 312 312 311 313 315 313 314 315 314 314 314 314 313 313 314 318
311 311 311 311 311 311 312 312 312 310 308 307 306 305 305 305 304 305 305 305 305 306 306 307 306 307 307 307 308 308 310 311 311 314 314 311 312 312 312 313 313 313 313 313 314 313 313 313 313 315 316 315 314 315 315 313 314 314 314 315 315 314 315 313 311 311 309 310 313 312 310 311 311 310 312 313 314 314 315 315 315 315 315 315 315 314 316 319
311 311 310 310 310 310 310 311 311 310 309 306 305 306 305 305 305 305 305 305 306 306 306 307 306 307 307 307 308 309 310 310 312 314 313 311 312 312 312 313 313 314 313 313 314 312 313 313 315 316 316 315 315 315 314 311 312 314 313 313 312 311 315 312 309 309 308 309 311 312 312 312 311 310 312 313 315 315 315 315 315 315 314 314 315 315 317 320
311 310 310 309 309 309 309 310 311 311 311 308 306 306 306 305 305 305 305 306 306 306 306 306 307 307 307 308 308 309 311 310 311 314 313 311 312 311 312 312 313 314 313 314 313 313 314 314 315 316 315 314 315 315 313 310 310 315 313 311 310 310 313 311 308 309 307 310 312 312 312 311 311 313 311 311 314 315 313 312 312 312 310 311 315 316 316 319
310 310 309 309 309 309 308 309 310 311 311 310 307 307 307 306 306 306 306 307 306 306 306 306 307 307 308 309 309 311 313 311 311 314 313 311 312 311 312 312 314 314 314 314 313 314 315 315 315 315 315 314 314 314 313 310 311 315 315 312 310 309 310 309 307 307 306 310 311 310 311 311 313 313 310 310 314 314 311 309 309 310 308 309 314 315 316 319
309 309 309 308 308 308 308 309 309 310 311 311 310 308 308 306 306 306 306 307 307 307 306 306 307 307 309 310 311 313 312 313 314 314 312 312 312 311 312 313 314 315 314 313 313 314 315 315 314 314 315 314 313 314 311 312 314 315 315 312 310 309 310 308 306 306 307 309 308 308 311 312 311 310 309 311 314 313 312 310 310 310 308 309 312 314 316 318
309 308 308 308 308 308 308 308 309 310 310 311 311 308 307 306 306 306 306 306 307 307 307 308 307 308 309 310 313 312 311 315 316 314 311 312 312 312 312 313 315 315 314 313 312 314 314 314 314 313 314 313 313 313 311 314 315 314 313 312 312 311 310 308 307 308 308 309 308 311 313 311 308 308 311 314 314 313 311 310 310 310 310 310 311 313 316 317
309 308 308 309 308 308 308 308 309 310 310 311 310 308 308 307 306 306 306 306 307 307 307 308 308 309 308 309 312 310 312 317 316 313 312 312 312 312 312 314 315 314 314 313 312 313 314 314 313 313 314 313 313 312 312 314 313 311 312 313 313 312 310 309 311 310 309 310 309 312 314 311 309 310 315 315 312 309 310 310 310 310 311 311 311 312 315 316
309 309 309 309 308 308 308 309 309 309 310 310 309 308 308 307 306 306 306 306 307 307 308 308 309 309 308 310 310 309 314 317 315 313 311 311 312 312 313 314 314 314 314 313 312 312 312 312 311 313 315 314 313 312 311 311 311 311 311 314 314 312 312 311 312 311 311 312 309 312 314 311 310 311 316 315 308 307 310 311 310 310 312 312 312 311 313 315
310 309 310 309 308 308 309 309 309 309 309 309 308 308 308 307 307 306 306 307 307 308 308 308 309 309 309 309 310 314 316 315 313 312 311 312 312 312 314 315 315 314 314 314 312 311 311 312 312 314 314 313 314 314 312 309 309 311 312 316 316 315 315 312 312 310 311 313 309 311 314 314 314 313 316 313 307 308 310 312 311 311 312 312 312 311 312 314
310 310 310 310 309 309 309 310 310 310 309 308 306 307 307 306 307 307 306 307 308 308 308 309 310 309 309 309 311 316 318 314 313 312 311 312 313 314 315 315 315 315 315 315 312 311 312 312 313 313 312 313 314 312 312 310 310 313 313 315 316 316 316 313 311 309 312 312 308 311 314 316 317 316 316 312 308 310 311 313 313 312 312 312 312 311 311 313
311 310 310 310 310 310 310 310 310 310 309 307 306 307 307 306 307 307 307 307 308 308 308 309 309 309 309 310 312 317 318 314 313 312 312 312 313 314 314 314 315 314 315 314 312 312 312 313 314 313 311 312 312 311 313 313 312 314 313 315 316 314 314 314 311 311 314 311 308 312 313 316 319 317 315 309 307 309 312 314 314 313 312 311 312 311 311 313
311 311 311 311 311 311 311 311 310 309 307 307 306 306 307 307 307 307 307 308 309 309 309 309 309 309 308 308 311 315 316 315 313 312 312 313 313 314 313 314 314 314 314 313 312 312 312 314 314 313 311 309 311 314 315 315 314 314 312 314 316 313 314 315 310 310 314 311 309 313 314 316 318 317 312 307 306 308 311 313 313 313 312 311 311 311 311 312
312 312 311 311 312 312 312 311 310 309 307 307 307 307 307 308 308 308 309 309 310 310 310 311 309 310 309 309 311 313 315 316 314 313 312 312 314 314 313 314 313 313 313 313 313 313 313 313 312 312 312 312 314 317 316 315 315 315 313 313 316 314 314 315 311 308 311 311 311 312 314 316 317 315 311 306 307 308 310 313 313 313 312 311 311 310 311 311
313 312 311 311 311 311 312 312 311 309 307 307 307 309 308 309 310 310 311 311 311 311 311 311 308 308 308 309 311 311 313 315 314 313 313 312 313 313 313 313 312 313 313 313 313 314 314 313 311 312 314 313 315 317 314 312 312 315 315 314 315 315 313 313 313 310 308 311 313 313 313 316 316 315 313 311 308 309 311 313 314 314 313 312 312 311 310 311
315 313 312 311 311 311 311 311 311 309 307 307 308 310 310 311 312 312 312 310 310 309 309 309 308 308 308 307 310 312 313 315 314 313 313 313 313 313 314 313 312 313 315 315 314 314 314 314 314 315 316 314 315 316 312 310 312 313 314 314 314 314 313 314 314 312 309 311 314 314 314 315 316 316 315 314 312 310 311 312 313 314 313 313 312 311 311 311
316 315 314 312 312 312 311 311 311 309 308 308 310 311 311 312 312 312 312 310 308 307 309 310 308 310 310 309 312 314 314 314 313 313 312 312 312 313 313 313 315 316 315 315 315 314 315 316 316 316 317 316 316 316 313 313 313 314 316 315 314 313 313 315 315 311 310 313 314 315 315 316 316 316 316 315 314 312 311 312 312 313 312 312 312 312 312 312
317 316 315 314 313 312 312 311 311 310 308 309 312 309 309 311 311 311 311 310 309 308 310 310 308 310 311 311 314 314 314 313 314 314 312 311 313 314 313 313 317 316 314 317 317 312 313 316 317 316 317 317 317 315 313 313 313 316 317 316 316 315 313 315 315 310 308 313 316 316 316 316 316 316 316 316 315 313 312 312 312 312 313 313 313 313 313 313
318 317 317 316 315 313 313 312 311 310 308 311 312 307 306 309 308 307 308 310 309 307 310 310 309 311 311 311 314 313 313 314 314 314 312 312 313 313 313 313 316 315 314 317 316 312 313 316 317 317 315 315 314 313 312 312 314 315 315 315 316 316 315 315 313 310 308 312 316 315 315 316 316 316 316 316 315 314 314 313 313 314 314 314 314 314 314 314
320 319 318 317 316 315 314 313 312 310 309 311 310 307 308 309 307 307 308 310 311 307 310 311 309 310 311 311 313 313 313 314 314 315 313 312 313 313 313 313 314 314 314 314 314 314 315 316 316 314 311 312 311 310 312 314 315 315 316 316 315 315 316 313 311 310 309 312 315 315 314 315 315 316 316 315 315 315 315 315 315 315 315 315 315 315 315 315
321 320 319 318 317 316 315 315 313 311 310 310 310 309 310 310 309 309 309 309 311 309 311 312 310 311 311 311 313 313 313 313 314 315 314 312 313 313 313 314 313 314 314 314 315 315 315 315 314 311 310 312 311 310 312 314 315 316 317 315 315 317 316 311 311 311 310 311 313 314 314 315 316 316 316 316 315 315 315 315 315 315 314 315 315 316 315 315
321 320 320 319 317 316 315 315 314 312 310 309 310 310 311 311 309 310 310 309 309 309 310 310 310 311 311 310 312 313 313 313 313 314 314 313 312 313 313 313 313 314 314 313 314 315 314 312 309 308 311 314 313 312 313 314 315 317 317 316 316 317 316 312 313 312 312 311 311 313 314 315 317 317 318 317 315 314 314 314 314 314 314 314 314 315 314 314
321 321 320 319 317 316 315 315 315 313 311 309 310 311 313 312 308 308 309 309 308 309 308 308 310 311 310 310 313 313 312 312 312 313 314 312 312 312 312 311 312 314 314 313 313 315 315 310 308 310 311 314 315 314 315 316 315 316 317 317 316 315 316 315 315 315 314 314 313 313 313 314 316 316 318 318 317 316 315 315 315 315 315 314 313 314 314 314
321 321 320 319 317 316 316 316 315 313 312 310 309 311 313 312 309 308 309 309 309 310 309 308 311 310 309 312 313 312 311 311 310 311 312 312 311 311 311 311 311 313 313 312 313 314 313 309 310 314 313 315 316 314 316 317 314 315 316 316 315 315 316 316 316 315 314 314 314 314 314 314 316 315 317 319 318 318 317 317 317 317 316 315 315 315 315 314
320 320 320 319 317 317 317 317 315 313 313 311 309 310 313 313 311 309 309 309 310 313 312 309 308 309 309 311 311 309 310 311 311 311 312 312 311 310 312 312 310 311 311 311 313 313 313 311 312 315 315 315 315 315 316 316 314 316 317 316 314 314 316 316 316 316 316 316 315 315 316 316 317 316 317 317 316 317 317 317 318 319 318 316 316 315 316 315
320 319 319 319 318 318 318 317 315 313 312 311 309 310 312 312 310 309 308 310 311 312 312 309 307 308 309 309 309 308 309 311 313 313 310 310 311 311 312 313 312 313 311 312 314 313 314 316 315 315 315 315 316 318 316 314 314 316 313 312 313 315 316 316 317 317 316 316 316 317 317 315 316 316 316 316 316 316 316 317 318 320 319 317 316 316 315 315
318 319 319 318 318 318 317 317 317 315 312 310 309 309 311 310 310 311 310 311 313 311 310 310 309 309 310 309 308 308 308 310 313 313 310 310 311 311 311 311 312 313 311 311 315 314 312 312 312 314 315 315 317 315 312 315 315 313 310 312 313 314 315 315 317 317 317 316 317 319 316 313 312 314 315 314 316 317 316 317 319 319 319 319 318 316 315 313
317 318 319 318 317 316 316 317 317 315 313 311 309 309 311 310 311 313 312 313 315 312 309 310 310 310 311 309 308 309 310 311 312 311 311 311 311 309 309 309 310 313 313 312 314 313 309 307 310 314 314 313 312 308 309 315 315 312 314 316 316 315 315 316 316 316 317 318 318 318 316 313 311 314 317 316 316 317 317 317 318 319 320 324 323 317 314 312
316 317 318 317 317 316 316 316 317 315 313 310 309 309 311 312 312 314 315 314 314 313 310 310 311 311 311 311 310 310 311 312 312 313 313 312 312 311 310 311 311 314 314 314 314 313 311 310 312 313 311 311 312 310 309 310 310 313 318 319 317 316 315 316 316 317 318 317 316 315 316 316 313 313 316 316 315 315 316 317 317 318 320 325 326 319 313 311
314 317 317 317 317 316 316 317 316 315 313 309 311 314 314 314 315 316 315 312 312 315 313 312 312 312 311 313 313 311 312 313 312 314 315 314 314 313 313 314 314 314 314 314 315 314 314 315 314 312 310 311 315 315 312 310 311 315 318 317 315 314 315 317 318 318 318 317 313 311 314 317 315 314 316 316 315 315 315 315 315 317 317 319 322 320 315 313
312 315 317 316 317 316 316 317 316 315 312 310 313 318 318 315 316 316 314 312 314 314 313 313 313 313 312 313 313 312 313 314 313 313 314 315 316 315 315 316 316 315 314 314 315 313 314 315 314 314 312 312 315 315 314 314 313 315 318 317 315 314 315 316 316 314 314 314 310 309 314 317 316 315 316 316 316 316 316 316 316 316 316 316 317 317 316 314
309 313 316 316 316 316 316 316 316 315 312 310 314 317 317 317 317 316 315 315 316 313 312 313 313 312 313 314 314 312 311 313 313 314 314 315 316 316 316 315 315 315 313 313 314 314 314 314 314 314 315 314 315 315 317 317 315 316 318 317 315 315 315 314 314 312 312 313 310 308 314 318 317 316 316 315 315 316 315 315 316 315 314 315 314 314 314 312
307 309 314 316 316 316 316 315 316 314 312 312 314 314 315 319 319 319 318 316 316 313 311 312 313 313 314 314 315 313 311 313 313 314 315 315 316 316 316 315 314 313 313 312 313 313 314 314 314 315 316 315 315 317 319 317 316 316 316 315 316 316 312 311 312 312 312 313 313 311 314 316 315 316 315 314 315 317 316 313 313 314 315 314 315 316 315 311
307 309 312 314 315 316 315 315 314 313 312 313 314 313 316 320 320 322 321 316 316 315 312 313 314 315 314 314 314 313 312 313 313 314 315 315 316 316 316 316 314 313 312 312 313 313 312 313 314 313 313 313 314 316 317 316 315 314 315 315 315 316 314 312 312 310 310 313 314 314 314 313 313 314 314 314 316 317 316 314 314 315 317 316 317 319 316 313
307 310 311 312 314 315 315 315 313 312 313 314 314 314 315 317 318 320 320 315 314 314 314 315 315 315 316 315 315 313 313 314 313 314 315 315 315 315 315 315 315 313 312 312 314 315 313 313 313 312 313 311 309 313 315 315 315 314 315 316 314 314 315 313 313 314 313 315 315 315 315 313 312 314 315 316 316 315 315 315 315 316 318 317 319 321 318 314
306 308 310 311 312 314 315 315 313 312 313 314 315 315 313 314 316 317 316 314 313 314 315 316 316 316 316 315 315 314 313 314 314 314 315 314 314 315 315 314 314 313 313 312 312 313 313 313 314 310 312 312 309 312 315 314 313 313 314 316 314 315 316 314 314 315 316 316 316 316 315 313 313 315 315 316 317 316 316 316 316 316 316 317 319 321 319 316
306 308 310 308 309 312 315 314 312 312 314 313 314 315 313 313 315 315 315 314 315 317 318 317 316 316 316 316 316 314 313 314 315 314 315 314 315 315 314 314 315 313 312 312 311 312 312 312 315 310 309 312 312 313 315 315 313 312 312 314 313 314 316 316 314 314 315 316 315 316 315 313 314 316 314 314 316 316 316 318 319 317 317 318 320 320 319 317
307 309 310 308 308 312 314 313 312 313 315 314 314 315 314 314 314 314 314 313 315 318 319 319 318 317 317 316 314 314 314 315 315 315 315 314 314 315 313 313 315 314 312 312 312 313 312 310 313 312 310 313 314 315 316 316 315 313 314 315 314 313 314 314 314 313 313 314 314 315 315 313 314 318 316 314 315 316 317 319 320 321 320 321 320 317 315 315
307 308 309 309 311 313 313 312 313 314 316 316 315 315 314 314 314 313 312 311 313 316 316 318 319 319 319 317 314 315 315 315 315 315 315 313 313 315 314 312 314 313 312 313 312 313 313 311 313 315 312 314 316 317 316 317 317 316 315 316 315 315 314 315 316 314 312 314 314 315 315 314 315 318 316 314 315 316 319 319 319 322 323 322 319 316 314 315
306 306 307 310 312 313 313 314 314 314 316 316 316 315 314 314 314 314 312 311 312 314 314 315 317 318 319 318 316 316 316 316 315 314 316 315 313 315 315 312 312 313 312 314 314 315 315 313 313 316 316 317 317 313 310 314 318 316 315 315 316 316 316 316 318 316 313 314 314 314 315 316 318 320 318 316 317 316 317 318 320 321 321 318 317 314 313 315
305 305 306 309 312 313 313 314 314 314 315 315 314 315 315 314 315 314 313 313 313 313 313 314 315 316 316 317 317 317 317 318 316 315 316 316 314 314 316 313 312 314 314 314 314 314 315 314 314 315 317 319 316 311 309 310 313 314 314 314 314 315 316 316 316 316 316 316 315 316 317 317 318 325 322 317 317 317 315 315 318 321 319 314 315 315 312 312
305 306 306 307 311 313 314 314 314 314 314 314 314 314 314 314 314 314 313 314 314 313 313 313 314 314 315 316 316 316 317 318 317 316 316 317 315 315 317 316 314 314 313 315 315 314 314 316 316 315 316 317 316 315 314 312 312 314 315 315 315 316 317 316 314 314 316 318 318 318 319 317 317 323 321 316 316 317 314 311 312 317 318 314 316 319 316 313
306 306 306 307 309 311 311 311 312 314 313 313 314 314 314 314 314 313 313 313 314 314 314 314 314 314 316 317 316 315 316 317 318 317 316 317 316 315 316 317 315 313 314 319 317 314 317 318 316 315 317 318 318 317 318 316 314 314 315 316 316 316 316 316 315 315 317 319 319 318 317 316 316 319 318 315 316 316 314 313 311 312 314 313 314 315 315 315
305 304 305 306 307 308 307 307 309 311 312 312 313 313 314 315 314 313 314 314 314 313 314 316 316 315 316 317 316 315 315 316 317 318 317 317 316 315 314 314 316 314 316 319 317 316 322 321 316 316 317 317 318 318 319 320 317 316 317 317 316 316 316 316 316 317 318 318 318 318 317 317 316 316 317 316 317 317 317 317 314 312 315 317 314 311 309 311
304 304 304 306 306 306 306 306 307 310 311 311 312 312 313 314 314 313 313 314 313 313 314 316 315 314 315 316 315 316 316 315 316 317 317 317 316 315 313 312 314 315 315 317 316 318 322 319 316 318 318 317 318 318 319 320 320 319 318 318 317 316 317 317 317 317 318 318 319 318 319 319 317 316 316 317 318 318 316 317 317 316 318 319 315 311 310 310
303 304 304 305 306 306 306 306 306 308 309 311 312 312 311 312 313 313 313 313 313 313 315 316 314 314 315 315 315 316 316 317 317 316 317 317 317 317 316 313 313 313 315 316 316 318 320 317 316 318 318 317 317 317 319 319 318 319 319 318 318 317 317 318 317 317 318 319 319 318 319 320 318 316 316 316 317 317 316 317 319 317 315 316 315 314 317 319
302 303 304 305 305 306 306 307 307 306 308 309 311 311 312 312 312 312 313 313 313 313 313 315 315 314 314 315 316 317 316 317 318 317 316 317 317 318 317 316 314 313 313 314 315 317 317 316 317 318 318 317 317 317 318 318 317 317 318 318 318 317 317 317 317 317 318 318 318 318 319 319 317 317 316 316 317 317 315 317 318 316 314 316 318 318 319 320
301 302 303 304 304 305 305 306 307 307 307 308 309 309 310 311 312 312 312 313 314 313 313 314 314 314 314 315 316 316 316 316 317 317 316 316 317 316 316 317 317 313 311 312 314 315 315 316 317 318 318 318 318 317 318 318 318 317 317 318 318 317 317 317 317 317 318 318 318 318 319 318 317 317 316 316 317 318 316 315 316 316 316 317 318 319 318 316
301 301 302 304 304 304 304 305 306 306 306 306 307 307 307 308 310 310 310 311 313 313 313 313 314 314 314 314 315 315 315 315 315 316 316 316 316 316 316 317 319 315 311 312 315 314 313 314 316 316 317 319 318 319 319 318 318 318 317 317 316 316 317 316 317 317 317 318 318 319 319 318 317 316 316 316 317 317 316 315 314 315 316 316 316 317 317 317
300 300 301 303 303 303 304 305 305 305 306 306 306 306 306 307 309 309 309 310 312 312 313 313 313 313 314 315 314 314 314 314 314 314 315 316 316 316 316 317 318 317 315 313 314 313 312 313 315 316 317 319 319 319 319 318 319 319 318 317 316 316 316 316 316 316 316 317 318 318 318 317 316 316 316 316 317 317 316 315 315 316 316 315 316 316 316 317
Wind_Speed
6 5 4 3 3 3 2 3 3 4 5 5 5 6 6 6 6 6 6 6 7 7 7 6 5 4 3 2 2 1 1 3 5 6 4 4 6 6 5 5 4 3 3 2 6 7 4 3 4 5 4 4 3 1 1 2 2 2 2 2 3 3 3 5 8 5 1 2 7 7 8 8 6 5 3 2 4 2 2 4 4 3 6 6 1 2 5 12
6 4 4 3 3 3 2 2 2 3 4 5 6 6 6 6 6 5 6 6 7 7 6 6 5 4 3 3 2 1 2 4 6 5 4 6 7 6 5 5 5 4 3 3 5 7 4 4 4 3 2 2 2 1 1 2 2 0 1 2 3 3 2 3 6 6 0 1 7 7 5 5 4 5 5 5 5 4 6 6 5 7 9 9 6 4 7 12
6 5 4 3 3 2 2 2 2 4 5 5 6 6 6 6 6 6 6 6 7 6 6 6 5 4 3 3 2 2 3 5 5 3 4 7 7 6 6 5 5 5 3 3 5 5 4 6 6 3 2 2 2 0 1 2 2 0 1 3 2 2 2 1 4 5 0 1 6 8 4 3 2 4 5 5 4 5 9 8 6 9 11 11 9 8 10 12
6 5 4 3 3 2 2 2 2 4 5 5 6 6 6 6 7 7 7 7 7 7 6 5 5 4 3 3 2 2 4 5 3 1 4 7 7 6 6 6 6 5 3 3 5 6 6 7 5 2 2 3 2 1 1 3 1 1 1 1 3 1 2 2 2 2 1 2 3 6 5 4 2 3 4 5 5 6 10 10 9 11 11 8 9 10 11 13
6 5 4 3 3 3 3 2 1 2 3 4 5 5 6 6 6 7 7 7 7 7 6 6 5 4 4 3 2 2 3 4 2 2 5 7 7 6 6 6 6 6 4 2 4 5 6 5 3 2 2 3 1 1 2 3 2 2 1 2 3 0 1 3 1 1 0 1 2 5 5 4 4 3 5 7 9 7 4 5 8 8 4 2 7 11 11 12
6 6 5 3 3 3 2 2 1 0 0 2 4 4 5 5 6 7 7 8 8 8 7 7 6 5 4 2 2 3 3 2 1 3 6 7 7 6 6 6 6 6 4 2 3 3 3 2 2 2 2 2 1 2 2 2 2 0 2 1 2 0 2 3 1 2 2 2 5 5 3 3 4 5 3 7 14 5 4 3 0 2 2 2 5 10 11 13
9 6 6 4 3 3 2 2 2 1 0 1 3 4 4 5 5 6 7 8 8 8 8 7 6 5 5 3 3 2 1 1 1 4 7 7 7 6 6 6 6 5 2 2 3 2 2 2 3 2 3 3 1 3 2 1 1 0 3 3 2 1 2 1 1 3 2 3 3 1 1 3 6 5 1 6 16 7 3 3 2 2 1 1 5 10 12 13
10 8 7 5 4 3 2 3 2 2 2 1 1 3 4 4 4 6 6 7 8 9 8 7 7 6 5 5 2 2 2 1 1 6 9 8 7 5 4 5 5 2 2 5 3 2 2 2 4 3 2 3 2 3 1 1 2 1 4 4 2 1 1 1 1 3 2 2 1 1 4 3 2 1 1 10 15 7 2 2 1 0 2 4 7 10 11 12
11 9 8 5 4 3 2 2 2 2 3 2 2 3 4 4 3 4 5 6 7 8 8 7 7 6 6 4 2 3 2 1 3 8 9 8 6 4 3 4 3 2 4 7 3 3 2 1 3 3 3 4 2 3 1 1 2 2 3 3 3 2 1 2 2 3 2 1 2 4 4 1 0 1 6 14 9 0 2 1 1 2 4 7 7 9 10 11
11 9 8 6 4 4 2 2 2 2 2 2 3 3 4 4 3 4 5 6 6 7 7 7 6 6 5 4 2 4 2 2 6 8 9 9 7 4 3 3 3 4 6 7 5 3 1 3 4 2 5 5 2 2 2 1 2 3 4 4 4 2 1 1 2 3 0 1 1 5 2 1 1 1 7 6 1 3 2 4 2 4 7 8 7 7 9 10
9 9 7 6 5 4 3 2 2 2 2 1 3 3 4 4 4 5 5 6 6 7 7 6 6 5 4 3 3 3 2 3 7 8 9 8 7 5 4 4 4 5 7 7 6 6 6 8 7 2 2 3 3 4 2 1 2 2 2 4 4 2 2 1 1 2 1 1 1 3 2 2 2 5 9 2 3 0 3 5 4 6 7 7 7 6 7 9
8 9 7 6 5 3 2 2 1 0 0 0 1 2 4 5 5 6 7 7 7 6 6 6 6 4 4 2 0 3 4 5 7 9 8 8 7 6 6 6 6 5 6 7 5 8 10 10 7 4 2 3 4 3 3 2 0 2 1 2 2 0 2 2 1 1 2 1 1 1 4 7 8 13 10 4 3 1 1 6 6 7 7 6 6 5 7 9
7 7 7 6 4 3 2 1 1 0 1 1 0 1 3 4 5 7 8 8 8 7 7 6 5 4 3 1 2 5 6 6 7 8 9 9 9 9 8 8 8 7 8 10 8 8 8 6 7 7 3 2 3 1 4 3 1 2 1 1 1 3 2 2 2 1 2 1 1 2 5 6 10 16 7 6 2 1 4 8 6 7 6 5 6 6 7 8
7 6 6 5 4 3 2 1 1 1 1 0 1 2 2 4 6 7 8 9 9 8 7 7 6 4 2 1 3 5 6 6 9 11 11 11 12 12 11 10 10 10 11 13 11 10 9 9 11 10 3 3 3 3 4 3 1 1 1 1 0 3 1 3 2 1 3 2 1 3 6 5 6 8 2 4 0 3 8 10 8 7 5 5 6 6 8 9
9 7 6 4 4 4 3 2 2 1 1 1 2 2 3 4 6 7 8 9 9 8 8 7 6 4 2 1 2 4 6 6 9 10 11 12 12 10 10 12 13 12 13 14 14 12 10 9 8 6 3 2 3 4 3 2 2 2 2 2 1 2 1 3 2 1 2 1 2 5 5 6 7 3 4 3 1 3 8 10 8 8 7 7 6 7 8 8
8 8 7 5 5 4 4 3 2 2 2 2 2 3 4 5 6 7 8 9 9 8 7 6 6 4 2 2 3 4 4 5 7 9 10 11 9 10 13 14 13 12 12 12 12 10 9 9 4 2 2 1 3 4 3 1 1 1 2 2 2 3 2 1 2 0 2 1 4 6 5 4 3 1 3 2 2 3 6 9 9 9 8 8 7 7 7 8
8 7 6 6 5 5 5 3 2 2 2 4 4 4 5 5 7 8 8 9 8 6 5 4 5 3 1 2 3 3 3 5 8 8 9 9 9 14 14 9 8 9 10 9 7 5 7 6 1 1 2 1 1 2 3 3 3 2 1 2 1 2 2 1 2 2 1 2 5 7 8 10 7 2 2 3 4 3 7 10 11 9 7 7 6 6 8 8
9 8 6 5 5 4 4 3 3 2 3 5 5 6 7 7 8 9 9 9 8 6 4 2 3 2 2 3 3 3 4 6 8 8 8 10 12 13 10 6 6 6 6 4 4 3 3 2 1 1 3 1 2 4 4 2 2 3 4 3 1 3 4 3 1 1 1 3 6 7 9 15 14 10 10 8 6 6 11 11 12 11 9 8 6 8 9 9
9 8 6 4 4 4 3 4 4 3 3 5 7 9 9 8 7 7 6 5 4 3 2 3 4 2 2 3 3 5 7 7 8 7 8 11 11 10 8 7 6 4 3 2 2 3 1 1 1 2 4 5 7 7 4 2 2 3 3 2 2 3 4 3 1 1 0 3 7 10 12 16 16 12 13 12 7 8 12 12 11 11 9 9 9 9 9 10
10 9 7 5 4 3 3 5 5 4 4 7 9 8 6 5 4 3 2 2 2 1 1 1 2 2 2 3 5 8 9 6 4 4 8 11 10 10 7 4 3 3 2 2 2 2 2 2 4 5 4 6 8 4 3 4 3 4 3 1 1 3 4 1 2 2 1 4 8 8 11 17 18 14 13 12 9 9 13 13 13 12 9 9 11 12 12 13
11 10 9 6 4 2 3 5 4 5 5 7 8 4 1 2 2 2 2 2 1 1 2 2 2 2 3 4 7 8 5 4 2 2 8 9 8 8 2 1 4 4 0 1 3 1 2 4 6 5 1 2 4 5 6 4 3 2 2 1 1 3 5 1 3 1 2 2 6 4 9 16 18 16 14 11 10 14 15 15 15 14 11 10 12 15 13 11
12 11 10 9 5 3 2 4 3 4 5 7 7 3 2 2 3 3 1 2 1 0 1 2 1 2 3 3 7 6 1 3 3 2 6 6 3 4 2 2 5 4 2 3 3 2 3 6 5 3 6 7 6 5 4 3 2 1 1 1 2 2 3 1 3 2 2 3 6 5 8 14 17 17 17 15 14 16 16 16 15 12 11 12 13 14 12 10
13 13 12 11 8 5 3 1 2 2 4 6 6 4 2 4 5 3 0 1 1 1 1 2 2 3 3 1 6 6 2 3 4 4 7 6 2 1 4 6 4 4 5 6 6 5 4 4 2 6 8 7 5 4 5 3 2 3 2 3 3 0 1 2 1 2 3 3 5 7 8 12 15 16 17 17 14 15 16 15 14 12 13 16 15 12 11 13
15 15 13 12 10 8 5 1 1 0 3 6 6 6 6 7 5 2 1 1 1 0 1 2 2 3 4 3 8 8 2 1 3 5 9 8 4 2 4 5 4 5 6 7 6 6 3 1 3 6 6 6 6 5 7 5 4 3 5 6 4 3 3 3 2 2 3 3 2 7 9 9 9 10 12 9 5 10 12 11 12 13 14 15 14 14 14 15
16 16 15 14 12 10 6 2 1 2 3 4 6 8 8 8 4 2 2 1 2 0 1 2 2 4 5 5 9 7 1 1 1 2 8 8 4 4 3 2 2 5 6 5 3 5 2 3 6 6 4 4 5 6 7 6 4 3 6 9 9 6 3 1 3 4 4 2 1 3 7 5 2 5 9 4 3 9 7 7 12 13 11 11 12 14 13 13
18 17 16 16 15 12 7 2 3 3 2 2 7 10 9 7 5 3 2 1 3 1 2 3 3 5 7 6 6 5 2 3 1 3 7 5 2 3 3 2 1 2 6 6 2 3 1 3 4 6 6 5 4 4 5 5 4 3 2 6 9 5 1 2 1 2 4 3 1 1 5 6 3 8 12 8 7 11 8 8 13 12 9 10 11 11 10 10
14 17 18 18 18 15 7 2 4 4 1 2 9 12 10 7 5 2 1 1 4 3 4 1 1 4 7 4 4 5 3 2 4 4 3 2 1 1 2 5 2 1 4 4 2 2 4 5 3 5 6 6 5 4 5 8 6 1 1 1 5 5 4 4 2 3 3 4 2 4 3 7 8 8 9 9 10 12 13 14 15 10 9 10 11 11 11 9
8 13 19 20 20 17 7 3 7 5 1 3 10 15 11 7 4 1 2 3 3 3 4 1 1 3 4 2 2 2 0 1 4 3 2 2 1 1 2 7 6 6 6 5 5 1 3 6 8 8 7 6 5 1 5 11 5 1 1 1 3 3 3 3 2 2 1 4 5 4 5 5 9 3 2 2 7 9 14 17 15 7 4 7 9 9 8 6
5 9 17 21 21 19 11 4 5 4 2 3 11 16 11 7 4 1 2 4 1 3 2 2 4 3 3 3 3 3 2 2 1 1 1 2 2 2 2 4 4 6 4 3 3 1 1 2 4 6 6 5 3 4 2 8 3 2 5 5 6 5 4 3 1 1 2 5 5 6 8 5 10 5 5 2 4 9 13 13 11 5 2 5 6 5 5 3
5 7 14 21 22 20 13 7 6 6 3 3 10 15 11 5 3 3 3 4 2 2 2 2 2 2 8 8 2 1 1 2 2 2 1 1 3 4 0 1 3 4 2 2 1 1 1 1 1 2 2 2 5 6 3 0 4 7 7 6 6 5 3 3 1 1 1 7 3 8 11 6 8 5 7 6 4 6 9 9 7 3 2 4 3 2 2 1
7 7 13 22 26 23 15 8 10 10 4 5 12 14 8 1 1 5 5 1 1 2 3 2 1 5 12 11 4 2 2 2 2 5 4 2 2 2 2 3 3 3 1 3 2 1 1 1 1 0 1 3 6 7 5 4 3 4 4 4 4 2 1 2 1 2 5 7 1 4 5 6 8 6 4 3 2 3 7 7 7 6 3 3 1 0 1 1
8 8 12 22 27 25 17 10 14 13 6 8 12 8 4 3 2 6 4 2 1 3 4 3 1 5 10 6 3 5 4 2 3 5 5 4 5 6 6 6 6 4 4 7 4 2 2 3 3 2 0 3 6 7 5 2 1 2 3 5 4 2 2 3 3 3 5 5 1 1 1 5 11 9 5 9 10 10 10 7 8 8 7 7 2 0 1 0
6 8 11 20 26 25 20 14 15 15 11 12 9 2 1 6 7 8 7 4 1 0 3 3 2 4 7 6 4 4 2 1 5 4 2 3 5 7 5 4 4 2 3 5 4 3 3 1 3 5 2 4 7 7 5 4 5 7 7 7 6 5 4 6 3 1 4 3 2 2 2 5 11 9 10 17 16 14 12 9 8 8 11 11 6 3 4 2
2 7 11 17 24 25 21 15 15 18 17 15 7 2 3 7 8 10 9 4 1 2 3 3 5 4 4 3 2 4 2 2 6 4 2 4 4 6 6 5 6 2 1 3 4 6 6 4 6 10 4 7 12 7 4 6 7 7 4 3 5 5 5 5 3 2 4 0 2 1 2 6 7 2 3 9 9 8 8 7 6 7 11 10 8 8 7 5
1 4 9 12 16 21 22 17 16 21 20 13 5 4 8 8 7 8 8 4 3 2 3 3 6 6 3 1 1 2 1 1 5 3 3 6 5 7 8 8 11 7 3 4 3 4 5 5 3 4 1 9 11 3 3 6 4 3 1 1 5 4 2 1 1 1 0 1 2 3 4 7 6 5 5 6 7 6 4 5 5 9 11 8 8 10 5 4
0 2 7 9 9 15 20 19 19 24 19 9 4 6 8 7 4 3 4 3 4 7 7 4 4 5 5 3 1 2 1 1 5 4 3 4 4 5 6 6 10 12 9 7 3 3 4 3 2 2 1 4 4 0 2 2 3 4 4 4 3 1 1 2 1 3 2 5 5 4 6 8 7 10 9 9 11 9 4 5 7 9 10 6 8 9 2 4
1 3 5 8 10 13 17 19 23 23 13 5 5 6 4 4 2 1 1 2 4 8 9 6 5 6 6 5 4 6 3 2 5 5 4 4 4 6 7 3 5 14 14 7 2 2 3 1 1 1 2 1 2 1 2 3 1 4 4 5 2 2 1 2 4 1 3 7 4 3 8 8 6 7 1 4 8 10 9 10 10 10 10 8 10 9 3 4
0 3 3 8 14 14 15 21 24 17 6 3 5 5 3 3 3 2 1 1 4 7 7 7 6 5 6 7 6 7 6 4 6 6 4 4 4 7 11 5 5 15 16 6 1 1 2 3 1 1 1 1 2 2 3 2 2 1 1 2 2 2 4 4 5 4 5 6 3 4 7 7 9 8 3 4 7 8 10 10 10 11 10 9 11 8 3 3
1 2 2 8 16 17 18 25 22 10 3 4 5 5 6 5 3 2 3 1 2 3 6 7 5 3 4 6 5 6 7 6 8 7 5 5 5 5 11 9 6 11 14 10 4 1 2 5 3 1 2 1 2 5 6 4 1 2 1 2 1 2 3 3 3 2 5 5 4 4 4 7 10 7 7 12 12 11 11 9 8 10 10 9 8 5 1 3
1 1 1 6 16 21 23 23 14 5 4 5 6 4 4 5 4 4 5 3 1 1 3 5 5 3 2 3 2 4 6 5 6 7 5 6 6 4 7 9 4 3 9 12 7 2 3 4 3 2 1 2 5 7 8 10 8 6 6 6 5 2 0 2 2 1 3 4 4 3 5 10 8 4 8 13 11 11 10 8 8 8 8 8 5 2 2 4
2 2 1 5 17 25 23 15 6 4 5 5 7 5 3 4 5 6 5 2 0 1 1 3 5 5 3 3 2 3 3 3 4 5 3 6 8 5 5 8 7 7 6 7 7 5 4 3 4 4 3 6 4 1 4 7 8 8 9 10 10 8 5 4 5 2 0 3 3 2 6 12 6 3 6 9 8 8 9 8 8 6 8 7 2 3 5 5
3 3 0 5 21 27 17 6 4 5 6 7 6 4 3 3 5 7 7 4 2 1 0 2 5 6 5 5 4 3 3 3 4 4 3 6 9 6 2 4 8 10 8 4 4 4 3 1 3 4 4 4 1 2 1 2 2 3 4 5 6 7 8 8 6 4 3 2 1 0 5 12 6 4 3 5 5 4 5 6 6 6 7 5 2 4 6 6
4 5 1 4 24 28 12 5 8 6 8 6 3 2 3 4 4 5 7 7 5 3 3 2 3 5 6 6 5 5 5 4 4 6 5 5 8 6 2 4 8 9 6 3 2 3 3 1 4 4 2 1 1 1 1 3 2 4 4 1 2 6 8 6 2 2 4 4 4 3 5 13 9 3 2 1 1 1 3 4 6 6 6 5 3 4 6 3
3 4 2 4 23 26 11 6 9 9 9 6 4 5 6 4 4 6 8 9 7 4 5 5 3 4 4 4 5 7 8 6 5 9 9 6 4 2 3 8 10 8 5 3 4 6 4 3 3 4 4 3 3 3 2 1 2 4 5 4 7 10 6 1 1 2 4 8 11 8 7 13 8 4 3 1 1 3 5 4 5 6 7 5 3 3 4 3
3 3 2 3 13 14 6 3 5 8 12 10 9 11 9 4 5 8 10 10 6 4 6 6 5 4 3 3 3 5 8 8 7 8 8 6 2 1 2 9 11 10 6 2 4 6 5 4 5 6 7 7 8 6 4 4 4 4 5 6 9 12 10 5 3 4 7 11 13 9 9 15 12 3 4 2 1 4 6 5 5 7 7 6 4 4 2 1
3 4 2 2 4 4 2 1 1 6 11 12 10 11 13 10 4 4 8 8 6 6 5 3 4 5 4 5 5 5 8 10 8 4 4 4 2 0 2 6 8 10 7 6 6 6 2 2 7 10 11 11 11 8 2 5 6 7 11 11 10 13 14 10 5 7 11 12 10 11 14 19 22 16 8 5 3 6 7 5 5 6 7 6 4 4 3 4
4 4 4 3 2 4 4 2 3 5 7 10 9 8 13 15 7 4 7 7 7 9 6 2 4 7 8 9 10 9 9 10 9 7 5 4 2 1 0 2 6 7 5 5 5 4 3 3 9 13 15 14 16 15 7 8 8 11 14 14 12 13 15 13 11 15 15 11 11 16 19 18 22 24 18 8 5 6 7 5 5 6 5 3 2 4 6 7
4 3 4 2 1 4 6 6 8 9 8 7 7 7 12 16 13 9 7 6 7 9 6 4 8 12 12 12 10 8 9 10 9 9 8 6 4 2 1 1 4 4 5 4 3 4 3 6 10 14 16 17 19 19 11 10 11 12 13 14 14 15 16 17 18 21 19 14 13 16 19 17 18 25 22 10 7 10 9 7 5 4 2 2 5 6 6 6
3 2 2 1 1 3 3 4 7 11 11 8 5 7 10 14 16 12 7 6 8 10 9 8 11 14 14 13 11 9 10 10 9 9 9 8 7 5 3 3 2 0 3 3 1 1 3 7 11 13 14 17 19 20 16 12 13 13 11 10 11 15 18 20 21 23 22 19 14 17 22 20 20 24 17 6 7 10 9 6 5 4 5 7 8 6 5 6
4 3 2 1 1 2 1 3 7 9 10 8 5 6 6 9 13 11 7 7 9 10 12 15 15 13 13 14 12 12 11 10 10 11 10 10 9 6 5 5 2 1 2 3 1 2 2 6 9 8 8 13 17 19 19 15 12 13 11 7 9 14 19 22 22 19 17 18 18 22 24 21 21 19 12 10 9 5 6 9 9 7 8 8 8 7 6 8
5 3 3 2 4 5 2 2 6 7 7 7 7 8 7 8 11 8 4 6 9 9 11 17 18 14 12 15 16 16 16 15 15 14 11 11 10 8 6 6 6 4 3 4 3 1 2 4 5 4 6 10 14 17 19 16 11 10 11 11 15 17 16 16 15 14 16 19 20 20 18 17 18 12 8 15 15 7 8 11 8 7 9 10 12 11 10 11
7 2 2 2 4 5 4 2 4 6 7 8 9 9 6 6 8 8 4 4 6 8 8 12 14 11 10 14 15 13 12 12 13 12 10 9 9 8 6 6 8 8 6 5 3 4 5 4 4 5 6 9 15 17 13 11 8 8 13 20 23 21 16 13 14 18 21 19 15 14 13 15 17 12 11 19 17 10 10 9 7 9 12 13 14 14 14 16
Wind_Direction
187 187 177 170 158 152 143 143 159 167 172 176 181 192 200 202 204 203 197 197 198 197 199 202 209 210 219 221 198 183 162 159 152 147 148 129 119 112 94 82 64 64 67 102 165 171 141 106 112 119 104 66 17 341 85 17 358 246 190 186 200 172 176 174 178 176 136 174 165 168 191 202 181 164 169 174 207 209 189 214 217 235 242 238 191 106 150 166
190 188 181 175 163 163 145 133 157 173 177 179 186 192 197 200 199 197 195 197 198 198 198 201 208 206 220 217 182 186 161 155 146 116 121 140 124 106 92 79 62 68 81 105 157 180 165 121 116 119 102 79 2 342 177 338 339 237 128 209 213 156 141 166 174 164 204 203 158 162 190 213 197 157 160 209 200 184 225 218 207 240 238 220 200 175 155 165
193 192 185 179 172 175 151 143 179 187 186 188 195 192 193 198 194 192 194 195 196 197 196 200 205 202 216 205 184 204 158 149 143 107 131 142 124 106 91 75 64 66 78 100 129 152 150 136 132 123 91 82 26 309 169 358 327 128 195 222 186 125 118 157 180 156 260 304 160 158 165 216 200 142 162 216 211 191 228 224 205 228 234 216 182 165 164 170
195 200 194 187 183 172 164 180 210 209 201 197 202 197 194 198 193 191 192 191 193 195 194 196 198 197 207 198 190 165 145 158 162 141 152 142 124 108 85 69 61 54 62 100 108 109 122 123 112 92 97 107 55 289 105 14 306 141 241 248 78 107 133 133 188 137 24 317 180 149 148 199 159 145 190 201 216 222 232 230 225 233 234 210 169 164 173 178
200 208 203 196 192 176 174 180 220 232 217 208 204 195 194 197 194 191 190 190 189 189 189 192 191 193 197 197 194 165 160 176 155 140 158 146 127 105 77 61 51 48 52 95 105 109 119 112 102 85 79 112 112 156 81 14 322 119 47 7 68 163 95 99 155 124 151 328 172 157 166 179 127 180 214 207 225 235 237 223 230 245 258 172 167 171 175 186
213 212 208 195 191 187 183 163 149 157 251 215 192 183 192 193 189 188 187 187 187 186 184 187 185 185 185 177 168 180 206 201 114 148 161 149 130 102 71 55 45 45 36 88 114 121 122 111 130 116 89 95 56 88 83 11 308 129 100 81 110 15 43 90 121 147 189 200 174 173 167 137 156 209 216 223 235 236 64 69 329 317 12 48 168 171 179 194
214 211 210 197 193 192 186 178 169 163 150 197 180 176 182 185 188 186 183 183 185 183 179 182 181 179 178 158 120 119 169 49 75 163 159 151 135 105 73 54 42 39 31 99 111 122 129 135 130 126 105 101 82 86 71 16 316 313 121 133 151 46 15 52 105 150 191 215 169 119 163 169 203 218 84 237 243 238 101 88 41 10 46 198 181 182 196 202
209 208 209 202 204 193 185 190 180 182 171 135 174 175 164 168 184 181 181 182 180 178 176 178 176 173 175 173 141 104 102 61 165 165 156 153 140 111 75 54 42 53 96 87 90 152 155 123 132 180 112 92 140 107 65 165 89 55 118 135 146 107 26 76 142 159 185 232 135 173 190 187 229 250 301 249 248 240 155 119 116 104 172 200 206 203 206 208
205 204 205 204 212 199 201 193 175 188 172 148 173 162 146 151 165 172 177 175 174 175 172 173 172 170 173 165 142 161 141 53 173 161 153 152 137 112 81 62 64 112 98 76 78 158 183 168 154 203 120 99 154 106 328 240 85 58 102 125 131 109 84 128 161 150 187 197 157 207 188 146 316 360 263 248 252 359 118 188 167 200 212 211 213 213 211 213
200 203 204 205 211 201 211 195 179 200 189 176 173 154 141 146 147 151 161 164 168 172 172 172 163 164 173 160 161 185 151 101 163 159 152 148 133 117 97 83 94 110 93 74 70 78 156 167 148 164 113 103 134 92 334 313 81 74 96 108 96 85 93 128 156 116 208 140 170 233 196 143 160 255 252 237 344 36 194 210 191 221 230 224 218 219 219 221
201 201 204 208 208 198 203 208 204 206 197 183 182 176 157 151 148 145 150 155 160 167 167 163 160 156 156 169 196 183 126 117 152 156 151 145 136 132 114 109 116 113 100 78 69 79 101 128 134 148 113 125 133 91 40 54 92 64 119 139 81 60 119 95 133 92 305 157 168 259 241 236 142 230 246 162 76 358 213 217 208 227 235 232 227 224 224 228
204 200 202 204 200 192 189 201 215 197 230 236 210 186 162 159 158 151 148 150 154 162 160 154 162 155 129 142 157 131 128 125 142 149 150 145 139 132 113 115 116 112 111 96 88 102 111 125 125 86 56 167 149 101 106 109 80 74 113 174 93 253 170 126 106 62 284 175 142 249 254 238 200 228 239 116 108 147 230 240 224 229 236 234 232 231 230 228
191 194 195 196 189 182 180 198 226 316 323 301 359 164 167 169 166 159 153 151 152 153 158 155 154 155 151 134 99 125 133 128 137 142 146 145 133 118 109 113 110 104 110 109 112 113 113 120 104 88 67 131 116 113 133 109 305 127 64 328 130 234 202 113 67 36 234 162 96 246 262 238 206 228 229 94 112 246 259 250 236 232 233 234 232 235 238 227
164 171 180 191 182 168 180 198 207 243 282 22 103 145 168 173 170 165 156 153 154 152 156 159 154 151 151 115 117 141 140 134 141 140 143 143 127 112 108 111 109 103 99 98 104 102 100 103 100 102 61 29 102 149 131 89 357 110 112 298 193 243 170 96 74 211 207 159 130 227 255 258 224 224 155 74 193 235 258 255 246 239 229 235 235 236 243 232
158 160 162 169 153 140 146 145 144 172 189 138 133 144 151 163 166 164 160 156 153 154 155 156 158 149 137 126 131 155 152 149 154 152 151 144 130 116 113 115 107 100 96 93 95 89 83 89 91 95 69 16 154 153 117 87 65 59 231 191 132 240 193 94 95 231 233 114 172 219 249 265 261 250 81 51 168 190 250 258 254 249 242 239 236 238 245 242
162 163 166 160 144 138 131 121 130 151 162 159 155 149 147 150 152 154 156 151 149 152 153 156 162 161 170 145 131 154 163 165 168 164 157 151 144 133 125 115 102 96 96 91 89 79 60 65 65 32 81 157 176 146 130 157 153 80 261 217 154 218 250 97 117 50 312 65 206 228 262 271 259 4 80 110 166 184 250 265 260 251 247 245 242 241 243 247
168 165 170 167 161 156 142 131 141 149 158 161 153 146 144 140 141 142 139 139 139 135 135 147 150 152 165 130 147 175 167 168 168 163 161 160 154 142 130 109 97 100 97 87 80 61 34 50 103 274 71 114 151 158 177 210 219 180 220 247 210 218 251 256 140 105 316 253 226 227 250 258 252 264 250 192 164 210 252 262 264 257 247 244 243 242 245 244
168 168 170 164 161 160 153 152 156 157 158 159 152 139 130 124 129 131 131 131 118 104 109 123 144 176 204 162 170 154 133 149 151 150 156 153 150 147 134 112 119 115 103 83 48 26 16 33 250 145 112 140 158 191 204 207 225 180 188 216 214 217 229 259 258 123 183 232 237 232 246 259 258 253 258 247 200 229 257 258 262 261 253 251 247 245 245 241
167 169 168 156 159 169 164 156 162 165 155 156 145 127 115 111 116 121 131 142 133 123 145 166 170 187 178 146 123 108 117 133 141 141 144 143 145 136 109 105 117 108 126 162 45 30 5 104 137 172 181 193 187 203 211 85 83 136 162 194 194 234 237 238 257 58 273 254 250 247 255 267 267 258 259 260 228 230 256 259 259 257 251 252 249 248 245 241
171 169 170 165 169 170 132 134 155 157 149 158 146 129 121 124 127 131 157 230 211 120 67 125 146 87 82 102 118 125 117 110 122 144 147 147 143 124 88 67 97 92 125 182 100 53 288 180 190 218 211 197 191 180 100 83 76 102 123 164 194 256 265 195 111 56 36 269 260 249 263 273 275 271 263 263 256 250 254 252 253 249 243 245 246 248 244 242
181 178 175 174 177 157 96 103 138 156 157 168 162 155 183 179 177 153 170 227 205 43 37 64 70 76 85 114 142 145 124 90 77 149 155 155 157 152 127 11 154 151 87 78 101 107 230 213 222 228 118 119 150 119 107 110 84 97 169 239 227 247 264 138 89 48 111 252 268 266 276 275 275 278 270 260 255 258 257 249 250 249 242 242 245 248 246 244
197 190 181 180 179 169 119 81 104 160 173 177 179 206 277 201 155 114 134 195 150 38 41 89 105 114 83 128 165 166 171 124 116 182 174 157 181 193 158 156 181 173 122 131 137 144 200 226 226 140 91 86 97 123 142 134 118 134 153 244 256 256 277 298 82 53 142 227 275 294 285 276 276 278 273 261 249 253 255 249 254 257 253 248 245 248 249 248
213 203 189 185 179 173 181 98 75 147 183 185 187 198 190 150 132 112 88 177 150 104 132 170 202 164 129 178 184 176 203 162 150 193 192 170 163 186 155 164 174 136 148 185 186 180 196 235 206 118 129 123 102 141 154 137 179 198 180 215 246 335 290 263 85 86 171 219 297 304 289 276 274 273 267 259 248 252 256 253 256 254 251 253 251 253 253 251
225 214 202 190 180 180 188 200 17 166 197 201 199 189 167 147 129 123 103 53 245 194 138 218 237 183 165 156 174 178 209 193 163 179 185 180 149 150 171 154 143 144 178 194 197 213 206 76 103 133 155 146 127 159 174 184 205 206 214 222 235 228 225 251 351 354 209 201 286 294 287 269 256 260 264 264 255 262 260 254 257 247 242 251 258 259 253 250
233 225 213 197 185 183 186 221 255 208 200 211 209 187 167 157 134 118 107 29 247 258 15 213 208 200 167 128 158 168 133 183 247 148 174 180 139 139 154 105 171 186 173 159 186 241 228 113 132 137 145 152 147 174 189 198 209 217 219 221 234 245 231 212 358 335 272 242 161 297 293 268 203 250 264 280 296 273 252 230 250 247 236 239 249 254 248 244
231 232 222 204 188 178 178 231 238 197 182 210 206 185 169 157 129 123 110 27 257 205 132 177 179 180 160 134 150 146 144 198 11 72 151 168 114 127 149 122 325 195 154 144 185 253 186 129 140 140 150 160 169 197 197 195 212 231 222 222 231 242 233 202 260 293 282 300 175 191 283 280 271 253 254 258 267 275 270 253 256 248 234 234 240 249 245 241
222 229 226 209 189 178 171 200 190 170 165 210 193 182 176 162 135 131 155 298 265 176 130 178 230 165 156 150 165 160 191 176 98 94 127 144 136 56 178 164 143 143 147 148 216 225 145 154 162 146 151 164 186 200 186 191 207 213 64 198 201 190 201 203 192 230 280 326 262 181 226 279 279 247 246 255 256 275 283 274 267 248 230 238 243 249 250 249
209 217 220 211 196 190 190 178 169 168 202 186 180 181 179 171 162 148 197 241 270 121 118 170 110 115 126 108 97 111 344 68 124 144 19 30 137 20 209 188 177 168 163 184 217 218 144 179 183 169 171 188 194 177 169 183 198 357 91 113 138 151 173 159 170 226 330 325 276 175 165 263 280 230 129 276 247 261 272 269 269 262 233 245 248 252 258 262
207 199 209 211 200 197 203 190 172 181 191 147 172 181 174 176 193 85 163 226 205 101 93 131 124 88 117 127 74 64 71 28 51 150 36 58 84 31 202 192 165 150 157 226 229 23 42 218 202 182 190 195 150 41 180 187 176 138 139 101 88 84 73 94 189 190 103 280 262 163 165 247 288 251 135 111 224 235 254 263 271 280 277 261 257 260 269 281
200 186 201 202 192 194 199 196 198 196 186 167 171 173 166 177 195 135 173 229 174 106 70 135 157 142 149 148 113 14 92 51 52 105 87 100 62 30 34 122 83 126 146 302 288 65 64 28 309 225 199 138 106 65 12 76 119 146 145 102 91 85 65 81 42 80 207 262 226 157 176 212 288 268 151 158 202 218 238 256 271 279 273 260 260 272 286 317
189 178 196 196 191 194 192 191 201 191 187 181 160 160 167 153 140 179 191 241 111 139 134 142 134 145 158 160 157 163 120 68 148 151 142 153 115 90 159 159 109 122 207 252 224 116 103 171 177 173 84 110 111 84 42 48 120 157 148 129 128 123 131 141 125 149 228 252 171 141 189 204 246 249 146 167 261 257 241 249 268 281 289 268 277 8 311 360
187 177 192 198 199 198 194 195 192 183 178 165 151 153 185 151 194 219 189 106 173 184 152 139 159 166 166 161 148 156 143 111 171 173 157 162 173 177 193 189 164 169 225 221 199 119 198 203 137 98 217 181 143 104 74 68 219 221 159 161 190 202 201 222 205 183 234 245 57 32 225 221 245 257 277 273 269 259 247 240 257 276 285 272 260 166 208 170
192 180 184 198 203 202 202 203 188 180 167 147 137 70 155 174 205 216 189 158 202 149 101 99 109 162 160 158 159 149 124 143 169 179 163 157 189 201 220 227 186 211 235 192 178 171 206 230 135 155 197 214 189 162 151 180 198 197 178 175 195 195 211 232 200 192 263 251 39 7 176 240 267 275 262 256 256 256 253 246 244 257 270 268 261 239 228 208
198 185 182 195 205 207 209 207 193 183 160 132 111 64 153 198 215 207 196 183 55 41 61 101 118 130 155 165 177 162 156 184 166 162 158 160 191 212 221 231 216 234 38 160 184 191 215 250 178 172 158 178 197 202 164 148 172 196 187 173 203 199 211 230 205 225 259 137 80 301 197 228 254 312 246 253 273 277 265 264 259 257 262 267 275 260 233 213
329 193 188 192 204 209 210 207 196 184 162 133 117 159 178 207 216 208 199 160 110 104 63 84 125 138 180 290 335 208 210 203 166 152 170 178 193 204 202 205 201 188 156 195 202 167 225 265 169 153 132 172 187 212 91 115 159 194 89 181 231 223 195 246 313 202 359 11 197 207 240 241 252 294 271 253 274 269 251 267 267 263 263 264 274 266 223 184
327 180 194 195 200 206 206 205 192 179 164 134 139 183 197 214 212 207 190 134 134 136 120 119 135 151 189 197 210 225 288 78 156 169 202 209 234 219 208 210 194 186 184 192 184 148 212 274 79 61 312 176 185 310 106 151 190 159 164 201 228 332 115 172 247 85 89 267 246 202 247 267 284 282 253 225 245 247 240 260 249 252 262 260 265 265 202 173
189 165 190 205 207 202 200 198 186 175 164 136 166 191 216 245 235 165 140 106 126 137 141 166 188 179 185 188 189 193 189 127 163 193 192 185 243 219 208 242 186 190 202 203 205 213 210 248 66 109 204 173 347 352 79 7 13 136 183 192 141 17 353 204 235 193 187 247 254 211 244 262 266 270 241 157 235 245 244 251 248 250 257 257 260 258 207 196
112 169 209 221 208 199 194 189 179 168 150 142 186 202 208 230 228 163 140 98 122 149 176 196 195 183 185 193 184 172 181 174 167 193 186 175 229 198 182 204 194 196 208 208 248 239 199 229 255 61 239 83 45 218 165 56 23 81 213 175 135 225 209 187 214 222 219 234 247 239 254 261 241 239 246 214 223 234 239 239 240 247 249 248 256 256 213 194
93 145 255 222 200 195 190 182 171 156 140 176 203 214 202 211 227 176 179 178 104 154 196 208 205 197 186 186 162 152 185 188 164 180 194 185 214 188 175 194 201 196 196 184 187 169 165 230 231 84 294 75 124 216 197 157 107 32 268 195 210 261 222 191 187 218 234 227 241 262 270 262 241 215 219 231 223 219 229 230 231 240 242 243 254 271 271 217
136 146 289 202 188 187 181 172 163 159 178 193 209 201 177 195 212 207 195 175 93 164 203 217 215 212 180 164 150 164 193 203 171 185 206 187 203 210 186 191 173 159 183 182 195 178 141 228 230 115 297 209 183 208 196 177 170 179 200 195 189 192 299 272 226 175 253 237 244 269 273 268 259 177 193 218 216 212 218 226 230 232 240 246 253 263 246 244
139 202 276 182 181 177 167 161 167 189 195 213 218 202 171 171 186 199 195 160 128 255 168 197 205 209 185 164 196 176 169 190 182 194 219 201 211 220 194 193 164 126 146 173 201 205 170 201 210 159 186 209 199 209 215 199 183 186 197 197 197 182 157 217 220 168 256 257 235 239 267 269 267 133 188 206 201 209 208 216 232 238 245 251 251 212 204 220
171 195 232 175 180 172 159 169 193 189 214 219 206 192 160 150 175 188 184 173 208 249 182 186 197 202 197 200 214 167 136 176 186 196 234 223 217 216 198 193 163 144 143 154 194 195 134 148 215 197 199 211 180 52 352 302 298 261 236 206 206 186 177 209 216 177 176 207 244 294 267 267 261 113 157 195 189 215 200 199 225 243 253 257 274 258 226 203
197 202 326 186 182 173 162 202 193 194 226 209 144 131 168 171 177 176 179 188 190 186 197 196 183 200 207 202 197 174 169 191 189 199 236 251 230 220 161 143 153 155 158 152 158 145 109 167 225 227 218 151 94 114 83 37 6 275 261 180 198 209 205 218 227 184 186 175 199 210 234 260 268 99 114 195 105 261 236 205 221 247 265 253 227 266 273 243
201 206 322 213 187 180 178 205 194 202 220 200 160 194 205 193 173 169 185 198 194 176 192 207 202 208 212 181 173 183 187 196 207 210 225 245 237 203 151 160 164 176 193 187 168 163 166 191 204 231 241 216 200 198 186 150 166 234 236 195 207 214 195 120 39 231 227 207 209 216 233 254 261 93 100 240 132 241 254 230 222 243 260 261 236 225 246 265
167 194 293 239 200 193 195 212 199 206 212 208 203 206 211 210 188 189 193 195 193 181 192 207 200 188 189 163 165 184 190 202 220 215 218 234 243 42 195 185 179 195 209 154 133 157 171 185 175 200 230 229 224 217 198 177 166 209 230 200 205 205 182 173 206 211 230 227 216 218 241 253 255 194 144 164 189 247 253 231 223 239 246 256 269 258 242 260
174 195 210 212 220 229 257 360 216 217 212 209 211 214 216 217 205 193 198 196 195 192 197 206 182 177 184 186 196 204 204 215 226 215 211 226 215 28 231 199 199 211 195 138 140 150 140 209 195 205 223 230 240 243 174 122 149 199 215 202 193 196 192 193 211 217 226 236 232 224 231 251 264 258 225 172 174 229 241 228 225 245 245 233 236 260 270 253
203 206 194 176 191 226 235 230 210 222 216 203 203 211 216 217 214 190 198 206 198 195 208 213 174 186 191 193 210 219 208 215 225 223 225 226 215 262 114 184 233 234 182 145 166 142 111 222 213 219 232 238 249 252 209 154 183 207 209 202 188 188 194 196 213 225 223 229 241 234 229 241 262 265 254 226 200 229 239 231 227 240 253 255 225 226 233 236
212 216 214 208 200 207 219 218 203 210 219 206 203 212 214 216 218 208 197 205 203 197 207 217 201 205 202 194 206 219 209 213 222 221 226 229 222 230 74 176 241 221 160 172 207 152 162 226 218 221 236 242 251 256 232 192 209 216 208 203 191 185 191 199 216 226 224 224 240 246 242 239 251 262 261 244 222 237 235 220 224 242 261 262 241 229 229 236
210 241 251 269 263 205 206 192 183 201 215 209 210 222 214 212 216 211 190 190 209 204 203 217 214 211 211 206 209 219 212 209 217 216 219 224 218 213 221 234 255 119 140 166 264 146 180 228 225 223 237 242 247 255 247 226 230 238 229 211 194 190 192 202 216 224 225 230 244 255 254 249 248 257 265 259 230 242 243 226 220 235 237 239 242 239 243 244
197 214 201 136 219 199 91 145 166 189 208 203 208 220 209 210 212 204 185 191 210 206 203 217 222 212 212 214 218 226 221 215 226 225 215 220 222 212 215 219 207 50 106 140 279 315 204 223 232 227 241 251 250 255 255 246 242 248 246 223 208 207 205 211 220 224 229 236 241 246 253 257 254 254 268 280 263 245 241 235 227 232 239 249 258 248 238 244
192 200 180 167 206 196 174 163 165 182 200 196 207 213 210 219 212 197 196 212 216 215 208 218 225 220 214 216 219 227 228 224 230 232 219 218 221 211 212 214 196 182 158 161 175 162 176 229 250 225 232 250 248 249 253 254 253 256 256 241 227 222 219 221 226 228 231 235 238 241 247 254 256 253 262 269 264 245 235 234 228 241 244 243 251 247 236 240
188 194 174 192 223 200 184 188 176 192 207 200 208 212 204 207 198 190 212 217 211 229 231 228 234 233 221 220 222 229 238 238 242 247 238 231 232 223 217 213 197 182 168 172 161 144 173 210 238 221 225 245 246 245 250 255 255 247 243 240 236 232 231 235 237 234 232 232 236 238 235 245 260 266 261 260 259 252 248 238 217 234 239 233 238 242 242 244